SEYTG ESOW-ESKN

Flight info

Callsign SEYTG
Flight time N/A
Altitude 6000
Route LX DCT SA719 VFR DCT TRS IFR DCT ON
Aircraft B36T/L-BDFGLORY/S

Departure

Time N/A
Airport Stockholm Västerås Airport (ESOW)

Arrival

Time 2026-04-27 16:04
Airport Stockholm Skavsta Airport (ESKN)
Time Latitude Longitude Altitude Speed Heading
2026-04-27 15:59 58.78855 17.26025 2114 ft 139 kts 302°
2026-04-27 15:59 58.79298 17.24377 2111 ft 138 kts 302°
2026-04-27 15:59 58.79739 17.22741 2111 ft 137 kts 302°
2026-04-27 15:59 58.80176 17.21098 2112 ft 138 kts 302°
2026-04-27 16:00 58.80448 17.19313 2111 ft 140 kts 286°
2026-04-27 16:00 58.80446 17.17413 2111 ft 144 kts 272°
2026-04-27 16:00 58.80368 17.15487 2113 ft 145 kts 270°
2026-04-27 16:00 58.80266 17.13542 2116 ft 146 kts 270°
2026-04-27 16:01 58.80145 17.11625 2098 ft 131 kts 269°
2026-04-27 16:01 58.80040 17.10018 1952 ft 117 kts 272°
2026-04-27 16:01 58.79950 17.08661 1797 ft 88 kts 274°
2026-04-27 16:01 58.79881 17.07379 1675 ft 111 kts 271°
2026-04-27 16:02 58.79778 17.05856 1518 ft 117 kts 271°
2026-04-27 16:02 58.79683 17.04276 1353 ft 119 kts 270°
2026-04-27 16:02 58.79582 17.02685 1182 ft 120 kts 270°
2026-04-27 16:02 58.79466 17.01103 1016 ft 120 kts 269°
2026-04-27 16:03 58.79380 16.99512 844 ft 118 kts 269°
2026-04-27 16:03 58.79291 16.97976 692 ft 115 kts 268°
2026-04-27 16:03 58.79193 16.96438 542 ft 117 kts 268°
2026-04-27 16:03 58.79084 16.94888 383 ft 115 kts 267°
2026-04-27 16:04 58.78973 16.93407 212 ft 103 kts 262°
2026-04-27 16:04 58.78930 16.92317 151 ft 77 kts 262°
2026-04-27 16:04 58.78885 16.91585 146 ft 44 kts 267°
2026-04-27 16:04 58.78867 16.91261 146 ft 6 kts 267°
2026-04-27 16:05 58.78871 16.91184 146 ft 10 kts 75°
2026-04-27 16:05 58.78779 16.91265 146 ft 17 kts 162°
2026-04-27 16:05 58.78663 16.91342 146 ft 14 kts 159°
2026-04-27 16:05 58.78546 16.91415 146 ft 20 kts 161°
2026-04-27 16:06 58.78445 16.91485 146 ft 12 kts 142°
2026-04-27 16:06 58.78435 16.91624 146 ft 9 kts 57°
2026-04-27 16:06 58.78469 16.91728 146 ft 12 kts 56°
2026-04-27 16:06 58.78520 16.91874 146 ft 12 kts 54°
2026-04-27 16:07 58.78554 16.91968 146 ft 4 kts 47°
2026-04-27 16:07 58.78610 16.92089 146 ft 19 kts 60°
2026-04-27 16:07 58.78634 16.92222 146 ft 11 kts 71°
2026-04-27 16:07 58.78665 16.92386 146 ft 13 kts 64°
2026-04-27 16:08 58.78709 16.92573 146 ft 10 kts 94°
2026-04-27 16:08 58.78654 16.92729 146 ft 11 kts 129°
2026-04-27 16:08 58.78566 16.92795 146 ft 14 kts 171°
2026-04-27 16:08 58.78479 16.92818 146 ft 10 kts 174°
2026-04-27 16:09 58.78423 16.92773 146 ft 7 kts 216°
2026-04-27 16:09 58.78414 16.92784 146 ft 0 kts 82°